TimeEST,TemperatureF,Dew PointF,Humidity,Sea Level PressureIn,VisibilityMPH,Wind Direction,Wind SpeedMPH,Gust SpeedMPH,PrecipitationIn,Events,Conditions,WindDirDegrees,DateUTC
12:15 AM,49.1,38.5,67,30.30,10.0,South,4.6,-,N/A,,Clear,170,2013-11-05 05:15:00
12:35 AM,48.2,38.3,69,30.30,10.0,South,4.6,-,N/A,,Clear,180,2013-11-05 05:35:00
12:55 AM,48.4,38.3,68,30.31,10.0,South,4.6,-,N/A,,Clear,180,2013-11-05 05:55:00
1:15 AM,49.1,38.3,66,30.30,10.0,South,4.6,-,N/A,,Clear,180,2013-11-05 06:15:00
1:35 AM,48.9,38.3,67,30.31,10.0,South,4.6,-,N/A,,Clear,190,2013-11-05 06:35:00
1:55 AM,48.6,38.1,67,30.30,10.0,South,5.8,-,N/A,,Clear,170,2013-11-05 06:55:00
2:15 AM,48.2,37.8,67,30.31,10.0,South,5.8,-,N/A,,Clear,180,2013-11-05 07:15:00
2:35 AM,48.2,38.1,68,30.30,10.0,South,5.8,-,N/A,,Clear,170,2013-11-05 07:35:00
2:55 AM,48.7,38.3,67,30.32,10.0,South,4.6,-,N/A,,Scattered Clouds,190,2013-11-05 07:55:00
3:15 AM,49.5,38.3,65,30.31,10.0,South,3.5,-,N/A,,Mostly Cloudy,170,2013-11-05 08:15:00
3:35 AM,50.0,38.7,65,30.31,10.0,South,4.6,-,N/A,,Overcast,180,2013-11-05 08:35:00
3:55 AM,50.0,38.7,65,30.31,10.0,South,5.8,-,N/A,,Overcast,180,2013-11-05 08:55:00
4:15 AM,50.5,38.8,64,30.31,10.0,South,4.6,-,N/A,,Mostly Cloudy,180,2013-11-05 09:15:00
4:35 AM,50.5,39.0,65,30.31,10.0,South,5.8,-,N/A,,Scattered Clouds,180,2013-11-05 09:35:00
4:55 AM,50.9,39.2,64,30.33,10.0,South,5.8,-,N/A,,Mostly Cloudy,180,2013-11-05 09:55:00
5:15 AM,50.9,40.1,67,30.32,10.0,South,5.8,-,N/A,Rain,Light Rain,180,2013-11-05 10:15:00
5:35 AM,50.0,41.2,72,30.32,10.0,South,4.6,-,N/A,Rain,Light Rain,180,2013-11-05 10:35:00
5:55 AM,49.1,42.1,77,30.32,10.0,South,4.6,-,N/A,Rain,Light Rain,190,2013-11-05 10:55:00
6:15 AM,49.3,43.2,79,30.33,10.0,South,4.6,-,N/A,Rain,Rain,190,2013-11-05 11:15:00
6:35 AM,48.7,43.7,83,30.34,10.0,South,8.1,-,0.01,Rain,Rain,190,2013-11-05 11:35:00
6:55 AM,48.9,44.1,83,30.34,10.0,South,4.6,-,0.01,Rain,Rain,190,2013-11-05 11:55:00
7:15 AM,48.4,44.1,85,30.34,10.0,South,4.6,-,N/A,,Light Drizzle,170,2013-11-05 12:15:00
7:35 AM,48.4,44.2,86,30.33,10.0,SSE,4.6,-,N/A,,Overcast,160,2013-11-05 12:35:00
7:55 AM,48.6,44.6,86,30.34,7.0,South,3.5,-,N/A,,Overcast,170,2013-11-05 12:55:00
8:15 AM,49.1,44.6,84,30.35,7.0,SSE,3.5,-,N/A,,Overcast,160,2013-11-05 13:15:00
8:35 AM,49.1,44.8,85,30.36,5.0,SSE,4.6,-,N/A,Rain,Light Rain,160,2013-11-05 13:35:00
8:55 AM,49.3,45.1,86,30.36,5.0,SSE,3.5,-,N/A,,Overcast,150,2013-11-05 13:55:00
9:15 AM,50.0,45.5,85,30.36,7.0,SSE,3.5,-,N/A,,Overcast,150,2013-11-05 14:15:00
9:35 AM,50.0,45.1,83,30.36,10.0,SSE,3.5,-,N/A,,Mostly Cloudy,150,2013-11-05 14:35:00
9:55 AM,51.1,45.5,81,30.36,10.0,SE,5.8,-,N/A,,Mostly Cloudy,140,2013-11-05 14:55:00
10:15 AM,52.0,45.0,77,30.36,10.0,SSE,5.8,-,N/A,,Overcast,160,2013-11-05 15:15:00
10:35 AM,52.7,44.6,74,30.36,10.0,South,6.9,-,N/A,,Overcast,170,2013-11-05 15:35:00
10:55 AM,53.6,43.9,70,30.36,10.0,South,6.9,-,N/A,,Mostly Cloudy,170,2013-11-05 15:55:00
11:15 AM,54.3,43.0,66,30.36,10.0,South,5.8,-,N/A,,Scattered Clouds,170,2013-11-05 16:15:00
11:35 AM,55.4,42.4,62,30.36,10.0,SSW,11.5,-,N/A,,Clear,200,2013-11-05 16:35:00
11:55 AM,55.9,41.2,58,30.35,10.0,SSW,9.2,-,N/A,,Clear,200,2013-11-05 16:55:00
12:15 PM,55.8,41.4,58,30.34,10.0,South,5.8,-,N/A,,Scattered Clouds,190,2013-11-05 17:15:00
12:35 PM,56.1,41.4,58,30.34,10.0,South,6.9,-,N/A,,Clear,180,2013-11-05 17:35:00
12:55 PM,56.1,41.2,57,30.33,10.0,South,9.2,-,N/A,,Clear,180,2013-11-05 17:55:00
1:15 PM,56.1,41.0,57,30.32,10.0,South,8.1,-,N/A,,Scattered Clouds,190,2013-11-05 18:15:00
1:35 PM,55.9,41.0,57,30.30,7.0,South,5.8,-,N/A,,Mostly Cloudy,170,2013-11-05 18:35:00
1:55 PM,56.3,41.0,57,30.29,10.0,South,6.9,-,N/A,,Mostly Cloudy,170,2013-11-05 18:55:00
2:15 PM,56.3,41.0,57,30.30,10.0,South,8.1,-,N/A,,Mostly Cloudy,190,2013-11-05 19:15:00
2:35 PM,56.5,40.5,55,30.29,10.0,South,6.9,-,N/A,,Scattered Clouds,170,2013-11-05 19:35:00
2:55 PM,56.3,40.6,56,30.27,10.0,SSE,6.9,-,N/A,,Clear,150,2013-11-05 19:55:00
3:15 PM,55.9,40.6,56,30.27,10.0,SE,6.9,-,N/A,,Clear,140,2013-11-05 20:15:00
3:35 PM,55.9,41.0,57,30.27,10.0,SSE,6.9,-,N/A,,Scattered Clouds,150,2013-11-05 20:35:00
3:55 PM,56.3,40.5,55,30.27,10.0,SSE,8.1,-,N/A,,Scattered Clouds,150,2013-11-05 20:55:00
4:15 PM,56.5,41.0,56,30.26,7.0,SE,8.1,-,N/A,,Clear,140,2013-11-05 21:15:00
4:35 PM,56.3,41.0,57,30.25,7.0,SE,9.2,-,N/A,,Clear,140,2013-11-05 21:35:00
4:55 PM,55.4,41.9,60,30.25,7.0,SE,8.1,-,N/A,,Scattered Clouds,140,2013-11-05 21:55:00
5:15 PM,55.8,42.3,60,30.24,7.0,SE,6.9,-,N/A,,Scattered Clouds,140,2013-11-05 22:15:00
5:35 PM,54.5,42.3,63,30.23,5.0,SE,6.9,-,N/A,,Haze,140,2013-11-05 22:35:00
5:55 PM,53.6,42.3,65,30.23,10.0,SE,6.9,-,N/A,,Scattered Clouds,140,2013-11-05 22:55:00
6:15 PM,52.3,42.1,68,30.23,10.0,SE,4.6,-,N/A,,Clear,130,2013-11-05 23:15:00
6:35 PM,52.0,41.9,69,30.23,10.0,SE,4.6,-,N/A,,Clear,130,2013-11-05 23:35:00
6:55 PM,51.6,42.1,70,30.23,10.0,ESE,4.6,-,N/A,,Mostly Cloudy,120,2013-11-05 23:55:00
7:15 PM,51.3,41.9,70,30.23,10.0,ESE,5.8,-,N/A,,Scattered Clouds,120,2013-11-06 00:15:00
7:35 PM,51.3,41.9,70,30.23,7.0,ESE,5.8,-,N/A,,Scattered Clouds,120,2013-11-06 00:35:00
7:55 PM,52.2,41.9,68,30.23,10.0,SE,5.8,-,N/A,,Scattered Clouds,140,2013-11-06 00:55:00
8:15 PM,51.8,41.7,68,30.22,10.0,SE,6.9,-,N/A,,Scattered Clouds,140,2013-11-06 01:15:00
8:35 PM,52.0,41.4,67,30.21,10.0,SE,6.9,-,N/A,,Clear,140,2013-11-06 01:35:00
8:55 PM,51.4,41.7,69,30.21,10.0,SE,8.1,-,N/A,,Scattered Clouds,140,2013-11-06 01:55:00
9:15 PM,52.3,41.4,66,30.19,10.0,SSE,8.1,-,N/A,,Scattered Clouds,150,2013-11-06 02:15:00
9:35 PM,53.2,41.2,64,30.19,10.0,SSE,11.5,-,N/A,,Clear,150,2013-11-06 02:35:00
9:55 PM,53.6,41.0,62,30.18,10.0,SSE,10.4,16.1,N/A,,Scattered Clouds,150,2013-11-06 02:55:00
10:15 PM,54.0,40.5,60,30.18,10.0,SSE,11.5,-,N/A,,Overcast,160,2013-11-06 03:15:00
10:35 PM,54.1,39.9,59,30.16,10.0,SSE,12.7,18.4,N/A,,Overcast,160,2013-11-06 03:35:00
10:55 PM,54.1,39.7,58,30.16,10.0,SSE,10.4,-,N/A,,Overcast,160,2013-11-06 03:55:00
11:15 PM,54.7,39.6,57,30.15,10.0,SSE,10.4,-,N/A,,Overcast,160,2013-11-06 04:15:00
11:35 PM,55.0,39.6,56,30.14,10.0,SSE,11.5,16.1,N/A,,Overcast,160,2013-11-06 04:35:00
11:55 PM,54.7,40.1,58,30.13,10.0,SSE,9.2,-,N/A,,Mostly Cloudy,160,2013-11-06 04:55:00